owner,sensor,date,latitude,longitude,vertical_datum,direction_of_sea_water_velocity,sea_water_speed,upward_sea_water_velocity,qcFlag 
TABS,ioos:station:wmo:42046:1,2011-11-01T00:00:00Z,27.8903,-94.0367,2.0,322.7961675,8.91415167,-99999.0,'11133222,11111222,99999999' 
TABS,ioos:station:wmo:42046:1,2011-11-01T00:30:00Z,27.8903,-94.0367,2.0,345.5694683,9.510047318,-99999.0,'11133222,11111222,99999999' 
TABS,ioos:station:wmo:42046:1,2011-11-01T01:00:00Z,27.8903,-94.0367,2.0,338.2168808,11.80279628,-99999.0,'11111222,11111222,99999999' 
TABS,ioos:station:wmo:42046:1,2011-11-01T01:30:00Z,27.8903,-94.0367,2.0,332.3457367,8.467284098,-99999.0,'11133222,11111222,99999999' 
TABS,ioos:station:wmo:42046:1,2011-11-01T02:00:00Z,27.8903,-94.0367,2.0,336.7706028,9.685163912,-99999.0,'11133222,11111222,99999999' 
TABS,ioos:station:wmo:42046:1,2011-11-01T02:30:00Z,27.8903,-94.0367,2.0,339.1458012,5.393329213,-99999.0,'11133222,11111222,99999999' 
TABS,ioos:station:wmo:42046:1,2011-11-01T03:00:00Z,27.8903,-94.0367,2.0,341.9352473,7.836287386,-99999.0,'11133222,11111222,99999999' 
TABS,ioos:station:wmo:42046:1,2011-11-01T03:30:00Z,27.8903,-94.0367,2.0,299.6075444,8.258256475,-99999.0,'11133222,11111222,99999999' 
TABS,ioos:station:wmo:42046:1,2011-11-01T04:00:00Z,27.8903,-94.0367,2.0,341.4255108,9.072601611,-99999.0,'11133222,11111222,99999999' 
TABS,ioos:station:wmo:42046:1,2011-11-01T04:30:00Z,27.8903,-94.0367,2.0,298.2674929,6.925922321,-99999.0,'11133222,11111222,99999999' 
TABS,ioos:station:wmo:42046:1,2011-11-01T05:00:00Z,27.8903,-94.0367,2.0,331.297023,8.869949267,-99999.0,'11133222,11111222,99999999' 
TABS,ioos:station:wmo:42046:1,2011-11-01T05:30:00Z,27.8903,-94.0367,2.0,311.9657967,5.877227237,-99999.0,'11133222,11111222,99999999' 
TABS,ioos:station:wmo:42046:1,2011-11-01T06:00:00Z,27.8903,-94.0367,2.0,283.2226075,3.585038354,-99999.0,'11133222,11111222,99999999' 
TABS,ioos:station:wmo:42046:1,2011-11-01T06:30:00Z,27.8903,-94.0367,2.0,306.0688166,6.148601467,-99999.0,'11133222,11111222,99999999' 
TABS,ioos:station:wmo:42046:1,2011-11-01T07:00:00Z,27.8903,-94.0367,2.0,19.00805353,3.16243577,-99999.0,'11133222,11111222,99999999' 
TABS,ioos:station:wmo:42046:1,2011-11-01T07:30:00Z,27.8903,-94.0367,2.0,26.56519952,3.443544685,-99999.0,'11133222,11111222,99999999' 
TABS,ioos:station:wmo:42046:1,2011-11-01T08:00:00Z,27.8903,-94.0367,2.0,348.2197142,1.910235588,-99999.0,'11133222,11111222,99999999' 
TABS,ioos:station:wmo:42046:1,2011-11-01T08:30:00Z,27.8903,-94.0367,2.0,336.278142,4.598543248,-99999.0,'11133222,11111222,99999999' 
TABS,ioos:station:wmo:42046:1,2011-11-01T09:00:00Z,27.8903,-94.0367,2.0,358.7663412,3.250753759,-99999.0,'11133222,11111222,99999999' 
TABS,ioos:station:wmo:42046:1,2011-11-01T09:30:00Z,27.8903,-94.0367,2.0,66.31399128,2.315016199,-99999.0,'11133222,11111222,99999999' 
TABS,ioos:station:wmo:42046:1,2011-11-01T10:00:00Z,27.8903,-94.0367,2.0,26.29007248,3.7253322,-99999.0,'11133222,11111222,99999999' 
TABS,ioos:station:wmo:42046:1,2011-11-01T10:30:00Z,27.8903,-94.0367,2.0,297.1862363,2.889169431,-99999.0,'11133222,11111222,99999999' 
TABS,ioos:station:wmo:42046:1,2011-11-01T11:00:00Z,27.8903,-94.0367,2.0,11.37939776,3.243763247,-99999.0,'11133222,11111222,99999999' 
TABS,ioos:station:wmo:42046:1,2011-11-01T11:30:00Z,27.8903,-94.0367,2.0,322.8536106,2.484028985,-99999.0,'11133222,11111222,99999999' 
TABS,ioos:station:wmo:42046:1,2011-11-01T12:00:00Z,27.8903,-94.0367,2.0,293.5807728,3.349701479,-99999.0,'11133222,11111222,99999999' 
TABS,ioos:station:wmo:42046:1,2011-11-01T12:30:00Z,27.8903,-94.0367,2.0,323.6246698,2.782103521,-99999.0,'11133222,11111222,99999999' 
TABS,ioos:station:wmo:42046:1,2011-11-01T13:00:00Z,27.8903,-94.0367,2.0,314.5455979,1.781965207,-99999.0,'11133222,11111222,99999999' 
TABS,ioos:station:wmo:42046:1,2011-11-01T13:30:00Z,27.8903,-94.0367,2.0,317.7731517,2.48485412,-99999.0,'11133222,11111222,99999999' 
TABS,ioos:station:wmo:42046:1,2011-11-01T14:00:00Z,27.8903,-94.0367,2.0,271.1292531,2.03039405,-99999.0,'11133222,11111222,99999999' 
TABS,ioos:station:wmo:42046:1,2011-11-01T14:30:00Z,27.8903,-94.0367,2.0,265.3566676,8.277161349,-99999.0,'11133222,11111222,99999999' 
TABS,ioos:station:wmo:42046:1,2011-11-01T15:00:00Z,27.8903,-94.0367,2.0,262.1774184,11.31528612,-99999.0,'11111222,11111222,99999999' 
TABS,ioos:station:wmo:42046:1,2011-11-01T15:30:00Z,27.8903,-94.0367,2.0,257.078859,12.20913183,-99999.0,'11111222,11111222,99999999' 
TABS,ioos:station:wmo:42046:1,2011-11-01T16:00:00Z,27.8903,-94.0367,2.0,267.4660261,9.04884523,-99999.0,'11133222,11111222,99999999' 
TABS,ioos:station:wmo:42046:1,2011-11-01T16:30:00Z,27.8903,-94.0367,2.0,274.9468903,10.66973758,-99999.0,'11111222,11111222,99999999' 
TABS,ioos:station:wmo:42046:1,2011-11-01T17:00:00Z,27.8903,-94.0367,2.0,279.5045681,13.50538041,-99999.0,'11111222,11111222,99999999' 
TABS,ioos:station:wmo:42046:1,2011-11-01T17:30:00Z,27.8903,-94.0367,2.0,285.9775434,12.38855117,-99999.0,'11111222,11111222,99999999' 
TABS,ioos:station:wmo:42046:1,2011-11-01T18:00:00Z,27.8903,-94.0367,2.0,284.1151366,10.62064499,-99999.0,'11111222,11111222,99999999' 
TABS,ioos:station:wmo:42046:1,2011-11-01T18:30:00Z,27.8903,-94.0367,2.0,280.8840984,11.86339328,-99999.0,'11111222,11111222,99999999' 
TABS,ioos:station:wmo:42046:1,2011-11-01T19:00:00Z,27.8903,-94.0367,2.0,289.8339252,12.43778115,-99999.0,'11111222,11111222,99999999' 
TABS,ioos:station:wmo:42046:1,2011-11-01T19:30:00Z,27.8903,-94.0367,2.0,291.3573943,13.64716088,-99999.0,'11111222,11111222,99999999' 
TABS,ioos:station:wmo:42046:1,2011-11-01T20:00:00Z,27.8903,-94.0367,2.0,295.8224245,15.51961662,-99999.0,'11111222,11111222,99999999' 
TABS,ioos:station:wmo:42046:1,2011-11-01T20:30:00Z,27.8903,-94.0367,2.0,296.942688,14.94173015,-99999.0,'11111222,11111222,99999999' 
TABS,ioos:station:wmo:42046:1,2011-11-01T21:00:00Z,27.8903,-94.0367,2.0,287.7867244,12.57085916,-99999.0,'11111222,11111222,99999999' 
TABS,ioos:station:wmo:42046:1,2011-11-01T21:30:00Z,27.8903,-94.0367,2.0,296.717741,13.45670465,-99999.0,'11111222,11111222,99999999' 
TABS,ioos:station:wmo:42046:1,2011-11-01T22:00:00Z,27.8903,-94.0367,2.0,301.9327226,16.63774023,-99999.0,'11111222,11111222,99999999' 
TABS,ioos:station:wmo:42046:1,2011-11-01T22:30:00Z,27.8903,-94.0367,2.0,302.6981897,14.73504666,-99999.0,'11111222,11111222,99999999' 
TABS,ioos:station:wmo:42046:1,2011-11-01T23:00:00Z,27.8903,-94.0367,2.0,304.2576747,14.56714111,-99999.0,'11111222,11111222,99999999' 
TABS,ioos:station:wmo:42046:1,2011-11-01T23:30:00Z,27.8903,-94.0367,2.0,303.6258003,12.29771117,-99999.0,'11111222,11111222,99999999' 
TABS,ioos:station:wmo:42046:1,2011-11-02T00:00:00Z,27.8903,-94.0367,2.0,303.6672271,13.70941647,-99999.0,'11111222,11111222,99999999' 
TABS,ioos:station:wmo:42046:1,2011-11-02T00:30:00Z,27.8903,-94.0367,2.0,308.7388022,12.5126536,-99999.0,'11111222,11111222,99999999' 
TABS,ioos:station:wmo:42046:1,2011-11-02T01:00:00Z,27.8903,-94.0367,2.0,294.3303591,14.56340963,-99999.0,'11111222,11111222,99999999' 
TABS,ioos:station:wmo:42046:1,2011-11-02T01:30:00Z,27.8903,-94.0367,2.0,305.3806104,10.15543204,-99999.0,'11111222,11111222,99999999' 
TABS,ioos:station:wmo:42046:1,2011-11-02T02:00:00Z,27.8903,-94.0367,2.0,301.172553,7.07093346,-99999.0,'11133222,11111222,99999999' 
TABS,ioos:station:wmo:42046:1,2011-11-02T02:30:00Z,27.8903,-94.0367,2.0,293.1855547,11.22670032,-99999.0,'11111222,11111222,99999999' 
TABS,ioos:station:wmo:42046:1,2011-11-02T03:00:00Z,27.8903,-94.0367,2.0,293.035803,10.60566358,-99999.0,'11111222,11111222,99999999' 
TABS,ioos:station:wmo:42046:1,2011-11-02T03:30:00Z,27.8903,-94.0367,2.0,276.2686365,8.792565041,-99999.0,'11133222,11111222,99999999' 
TABS,ioos:station:wmo:42046:1,2011-11-02T04:00:00Z,27.8903,-94.0367,2.0,275.6129653,9.304606386,-99999.0,'11133222,11111222,99999999' 
TABS,ioos:station:wmo:42046:1,2011-11-02T04:30:00Z,27.8903,-94.0367,2.0,282.0814196,8.743649124,-99999.0,'11133222,11111222,99999999' 
TABS,ioos:station:wmo:42046:1,2011-11-02T05:00:00Z,27.8903,-94.0367,2.0,283.2037084,6.173183943,-99999.0,'11133222,11111222,99999999' 
TABS,ioos:station:wmo:42046:1,2011-11-02T05:30:00Z,27.8903,-94.0367,2.0,284.5986307,13.84702495,-99999.0,'11111222,11111222,99999999' 
TABS,ioos:station:wmo:42046:1,2011-11-02T06:00:00Z,27.8903,-94.0367,2.0,300.6946236,11.30359677,-99999.0,'11111222,11111222,99999999' 
TABS,ioos:station:wmo:42046:1,2011-11-02T06:30:00Z,27.8903,-94.0367,2.0,285.7613741,11.52323739,-99999.0,'11111222,11111222,99999999' 
TABS,ioos:station:wmo:42046:1,2011-11-02T07:00:00Z,27.8903,-94.0367,2.0,300.2416257,10.88073527,-99999.0,'11111222,11111222,99999999' 
TABS,ioos:station:wmo:42046:1,2011-11-02T07:30:00Z,27.8903,-94.0367,2.0,293.2240979,8.977421679,-99999.0,'11133222,11111222,99999999' 
TABS,ioos:station:wmo:42046:1,2011-11-02T08:00:00Z,27.8903,-94.0367,2.0,274.4164678,10.13007404,-99999.0,'11111222,11111222,99999999' 
TABS,ioos:station:wmo:42046:1,2011-11-02T08:30:00Z,27.8903,-94.0367,2.0,266.9416168,5.998541489,-99999.0,'11133222,11111222,99999999' 
TABS,ioos:station:wmo:42046:1,2011-11-02T09:00:00Z,27.8903,-94.0367,2.0,289.322911,10.81945008,-99999.0,'11111222,11111222,99999999' 
TABS,ioos:station:wmo:42046:1,2011-11-02T09:30:00Z,27.8903,-94.0367,2.0,292.6590737,7.943078748,-99999.0,'11133222,11111222,99999999' 
TABS,ioos:station:wmo:42046:1,2011-11-02T10:00:00Z,27.8903,-94.0367,2.0,289.0818827,8.687329854,-99999.0,'11133222,11111222,99999999' 
TABS,ioos:station:wmo:42046:1,2011-11-02T10:30:00Z,27.8903,-94.0367,2.0,288.5501474,7.889898605,-99999.0,'11133222,11111222,99999999' 
TABS,ioos:station:wmo:42046:1,2011-11-02T11:00:00Z,27.8903,-94.0367,2.0,278.7374984,9.611534737,-99999.0,'11133222,11111222,99999999' 
TABS,ioos:station:wmo:42046:1,2011-11-02T11:30:00Z,27.8903,-94.0367,2.0,278.2748814,7.295950932,-99999.0,'11133222,11111222,99999999' 
TABS,ioos:station:wmo:42046:1,2011-11-02T12:00:00Z,27.8903,-94.0367,2.0,270.9074002,7.580949809,-99999.0,'11133222,11111222,99999999' 
TABS,ioos:station:wmo:42046:1,2011-11-02T12:30:00Z,27.8903,-94.0367,2.0,258.979473,6.591547618,-99999.0,'11133222,11111222,99999999' 
TABS,ioos:station:wmo:42046:1,2011-11-02T13:00:00Z,27.8903,-94.0367,2.0,277.7034869,8.728768527,-99999.0,'11133222,11111222,99999999' 
TABS,ioos:station:wmo:42046:1,2011-11-02T13:30:00Z,27.8903,-94.0367,2.0,276.7451864,7.663034647,-99999.0,'11133222,11111222,99999999' 
TABS,ioos:station:wmo:42046:1,2011-11-02T14:00:00Z,27.8903,-94.0367,2.0,285.0166772,6.522737156,-99999.0,'11133222,11111222,99999999' 
TABS,ioos:station:wmo:42046:1,2011-11-02T14:30:00Z,27.8903,-94.0367,2.0,268.0994726,6.333482454,-99999.0,'11133222,11111222,99999999' 
TABS,ioos:station:wmo:42046:1,2011-11-02T15:00:00Z,27.8903,-94.0367,2.0,269.0734022,8.661131566,-99999.0,'11133222,11111222,99999999' 
TABS,ioos:station:wmo:42046:1,2011-11-02T15:30:00Z,27.8903,-94.0367,2.0,264.5460222,8.207149322,-99999.0,'11133222,11111222,99999999' 
TABS,ioos:station:wmo:42046:1,2011-11-02T16:00:00Z,27.8903,-94.0367,2.0,285.9665954,7.561699544,-99999.0,'11133222,11111222,99999999' 
TABS,ioos:station:wmo:42046:1,2011-11-02T16:30:00Z,27.8903,-94.0367,2.0,256.3413252,8.088739086,-99999.0,'11133222,11111222,99999999' 
TABS,ioos:station:wmo:42046:1,2011-11-02T17:00:00Z,27.8903,-94.0367,2.0,270.4619409,8.690281929,-99999.0,'11133222,11111222,99999999' 
TABS,ioos:station:wmo:42046:1,2011-11-02T17:30:00Z,27.8903,-94.0367,2.0,265.4991357,7.773969385,-99999.0,'11133222,11111222,99999999' 
TABS,ioos:station:wmo:42046:1,2011-11-02T18:00:00Z,27.8903,-94.0367,2.0,282.3873787,6.573013008,-99999.0,'11133222,11111222,99999999' 
TABS,ioos:station:wmo:42046:1,2011-11-02T18:30:00Z,27.8903,-94.0367,2.0,290.0832587,6.377789586,-99999.0,'11133222,11111222,99999999' 
TABS,ioos:station:wmo:42046:1,2011-11-02T19:00:00Z,27.8903,-94.0367,2.0,268.6083869,7.002063981,-99999.0,'11133222,11111222,99999999' 
TABS,ioos:station:wmo:42046:1,2011-11-02T19:30:00Z,27.8903,-94.0367,2.0,276.564151,4.811538216,-99999.0,'11133222,11111222,99999999' 
TABS,ioos:station:wmo:42046:1,2011-11-02T20:00:00Z,27.8903,-94.0367,2.0,294.2842346,6.516594202,-99999.0,'11133222,11111222,99999999' 
TABS,ioos:station:wmo:42046:1,2011-11-02T20:30:00Z,27.8903,-94.0367,2.0,278.4626739,9.513574512,-99999.0,'11133222,11111222,99999999' 
TABS,ioos:station:wmo:42046:1,2011-11-02T21:00:00Z,27.8903,-94.0367,2.0,275.2120764,9.027319646,-99999.0,'11133222,11111222,99999999' 
TABS,ioos:station:wmo:42046:1,2011-11-02T21:30:00Z,27.8903,-94.0367,2.0,279.5766853,3.306070175,-99999.0,'11133222,11111222,99999999' 
TABS,ioos:station:wmo:42046:1,2011-11-02T22:00:00Z,27.8903,-94.0367,2.0,300.9788075,6.683300083,-99999.0,'11133222,11111222,99999999' 
TABS,ioos:station:wmo:42046:1,2011-11-02T22:30:00Z,27.8903,-94.0367,2.0,279.75626,5.134247754,-99999.0,'11133222,11111222,99999999' 
TABS,ioos:station:wmo:42046:1,2011-11-02T23:00:00Z,27.8903,-94.0367,2.0,295.7228877,3.041381265,-99999.0,'11133222,11111222,99999999' 
TABS,ioos:station:wmo:42046:1,2011-11-02T23:30:00Z,27.8903,-94.0367,2.0,280.1296698,4.378241656,-99999.0,'11133222,11111222,99999999' 
TABS,ioos:station:wmo:42046:1,2011-11-03T00:00:00Z,27.8903,-94.0367,2.0,271.561224,3.671362145,-99999.0,'11133222,11111222,99999999' 
TABS,ioos:station:wmo:42046:1,2011-11-03T00:30:00Z,27.8903,-94.0367,2.0,283.3928874,3.453925303,-99999.0,'11133222,11111222,99999999' 
TABS,ioos:station:wmo:42046:1,2011-11-03T01:00:00Z,27.8903,-94.0367,2.0,269.3202159,5.060355719,-99999.0,'11133222,11111222,99999999' 
TABS,ioos:station:wmo:42046:1,2011-11-03T01:30:00Z,27.8903,-94.0367,2.0,271.9248306,6.253527005,-99999.0,'11133222,11111222,99999999' 
TABS,ioos:station:wmo:42046:1,2011-11-03T02:00:00Z,27.8903,-94.0367,2.0,275.9916943,5.077735716,-99999.0,'11133222,11111222,99999999' 
TABS,ioos:station:wmo:42046:1,2011-11-03T02:30:00Z,27.8903,-94.0367,2.0,290.8733695,5.501018088,-99999.0,'11133222,11111222,99999999' 
TABS,ioos:station:wmo:42046:1,2011-11-03T03:00:00Z,27.8903,-94.0367,2.0,258.058384,7.297924362,-99999.0,'11133222,11111222,99999999' 
TABS,ioos:station:wmo:42046:1,2011-11-03T03:30:00Z,27.8903,-94.0367,2.0,250.3969382,5.275774825,-99999.0,'11133222,11111222,99999999' 
TABS,ioos:station:wmo:42046:1,2011-11-03T04:00:00Z,27.8903,-94.0367,2.0,255.4279107,4.411915684,-99999.0,'11133222,11111222,99999999' 
TABS,ioos:station:wmo:42046:1,2011-11-03T04:30:00Z,27.8903,-94.0367,2.0,262.5280374,6.767458903,-99999.0,'11133222,11111222,99999999' 
TABS,ioos:station:wmo:42046:1,2011-11-03T05:00:00Z,27.8903,-94.0367,2.0,259.166558,6.597575312,-99999.0,'11133222,11111222,99999999' 
TABS,ioos:station:wmo:42046:1,2011-11-03T05:30:00Z,27.8903,-94.0367,2.0,221.1421599,6.201233748,-99999.0,'11133222,11111222,99999999' 
TABS,ioos:station:wmo:42046:1,2011-11-03T06:00:00Z,27.8903,-94.0367,2.0,219.9505297,3.535109616,-99999.0,'11133222,11111222,99999999' 
TABS,ioos:station:wmo:42046:1,2011-11-03T06:30:00Z,27.8903,-94.0367,2.0,249.7068738,4.584550142,-99999.0,'11133222,11111222,99999999' 
TABS,ioos:station:wmo:42046:1,2011-11-03T07:00:00Z,27.8903,-94.0367,2.0,238.1943245,6.071704868,-99999.0,'11133222,11111222,99999999' 
TABS,ioos:station:wmo:42046:1,2011-11-03T07:30:00Z,27.8903,-94.0367,2.0,214.0876583,5.192119028,-99999.0,'11133222,11111222,99999999' 
TABS,ioos:station:wmo:42046:1,2011-11-03T08:00:00Z,27.8903,-94.0367,2.0,228.5899985,3.613336408,-99999.0,'11133222,11111222,99999999' 
TABS,ioos:station:wmo:42046:1,2011-11-03T08:30:00Z,27.8903,-94.0367,2.0,217.0750529,4.462028687,-99999.0,'11133222,11111222,99999999' 
TABS,ioos:station:wmo:42046:1,2011-11-03T09:00:00Z,27.8903,-94.0367,2.0,239.4088199,5.796774965,-99999.0,'11133222,11111222,99999999' 
TABS,ioos:station:wmo:42046:1,2011-11-03T09:30:00Z,27.8903,-94.0367,2.0,193.4750461,5.450036697,-99999.0,'11133222,11111222,99999999' 
TABS,ioos:station:wmo:42046:1,2011-11-03T10:00:00Z,27.8903,-94.0367,2.0,207.3419974,6.923503448,-99999.0,'11133222,11111222,99999999' 
TABS,ioos:station:wmo:42046:1,2011-11-03T10:30:00Z,27.8903,-94.0367,2.0,194.0067528,4.751273513,-99999.0,'11133222,11111222,99999999' 
TABS,ioos:station:wmo:42046:1,2011-11-03T11:00:00Z,27.8903,-94.0367,2.0,359.1451151,1.340149245,-99999.0,'11133222,11144222,99999999' 
TABS,ioos:station:wmo:42046:1,2011-11-03T11:30:00Z,27.8903,-94.0367,2.0,196.087272,16.05887294,-99999.0,'11111222,11111222,99999999' 
TABS,ioos:station:wmo:42046:1,2011-11-03T12:00:00Z,27.8903,-94.0367,2.0,194.6343149,21.13570675,-99999.0,'11111222,11111222,99999999' 
TABS,ioos:station:wmo:42046:1,2011-11-03T12:30:00Z,27.8903,-94.0367,2.0,191.1643537,25.51283011,-99999.0,'11111222,11111222,99999999' 
TABS,ioos:station:wmo:42046:1,2011-11-03T13:00:00Z,27.8903,-94.0367,2.0,195.5651857,26.71996445,-99999.0,'11111222,11111222,99999999' 
TABS,ioos:station:wmo:42046:1,2011-11-03T13:30:00Z,27.8903,-94.0367,2.0,191.7555671,26.20975391,-99999.0,'11111222,11111222,99999999' 
TABS,ioos:station:wmo:42046:1,2011-11-03T14:00:00Z,27.8903,-94.0367,2.0,200.3735375,29.06848637,-99999.0,'11111222,11111222,99999999' 
TABS,ioos:station:wmo:42046:1,2011-11-03T14:30:00Z,27.8903,-94.0367,2.0,194.6385945,29.5182181,-99999.0,'11111222,11111222,99999999' 
TABS,ioos:station:wmo:42046:1,2011-11-03T15:00:00Z,27.8903,-94.0367,2.0,203.919757,30.1385285,-99999.0,'11111222,11111222,99999999' 
TABS,ioos:station:wmo:42046:1,2011-11-03T15:30:00Z,27.8903,-94.0367,2.0,195.8138367,26.97081756,-99999.0,'11111222,11111222,99999999' 
TABS,ioos:station:wmo:42046:1,2011-11-03T16:00:00Z,27.8903,-94.0367,2.0,192.7061451,30.09707627,-99999.0,'11111222,11111222,99999999' 
TABS,ioos:station:wmo:42046:1,2011-11-03T16:30:00Z,27.8903,-94.0367,2.0,199.0140354,29.71111745,-99999.0,'11111222,11111222,99999999' 
TABS,ioos:station:wmo:42046:1,2011-11-03T17:00:00Z,27.8903,-94.0367,2.0,200.6692754,28.95369579,-99999.0,'11111222,11111222,99999999' 
TABS,ioos:station:wmo:42046:1,2011-11-03T17:30:00Z,27.8903,-94.0367,2.0,201.3282599,26.9991648,-99999.0,'11111222,11111222,99999999' 
TABS,ioos:station:wmo:42046:1,2011-11-03T18:00:00Z,27.8903,-94.0367,2.0,199.7617967,26.35200372,-99999.0,'11111222,11111222,99999999' 
TABS,ioos:station:wmo:42046:1,2011-11-03T18:30:00Z,27.8903,-94.0367,2.0,210.379543,24.4003709,-99999.0,'11111222,11111222,99999999' 
TABS,ioos:station:wmo:42046:1,2011-11-03T19:00:00Z,27.8903,-94.0367,2.0,206.0915161,25.9884686,-99999.0,'11111222,11111222,99999999' 
TABS,ioos:station:wmo:42046:1,2011-11-03T19:30:00Z,27.8903,-94.0367,2.0,206.8101796,21.92708371,-99999.0,'11111222,11111222,99999999' 
TABS,ioos:station:wmo:42046:1,2011-11-03T20:00:00Z,27.8903,-94.0367,2.0,210.0629396,24.33350982,-99999.0,'11111222,11111222,99999999' 
TABS,ioos:station:wmo:42046:1,2011-11-03T20:30:00Z,27.8903,-94.0367,2.0,213.1740669,22.18613306,-99999.0,'11111222,11111222,99999999' 
TABS,ioos:station:wmo:42046:1,2011-11-03T21:00:00Z,27.8903,-94.0367,2.0,197.7259588,18.9181923,-99999.0,'11111222,11111222,99999999' 
TABS,ioos:station:wmo:42046:1,2011-11-03T21:30:00Z,27.8903,-94.0367,2.0,211.5227076,15.98957473,-99999.0,'11111222,11111222,99999999' 
TABS,ioos:station:wmo:42046:1,2011-11-03T22:00:00Z,27.8903,-94.0367,2.0,221.7872095,15.14173702,-99999.0,'11111222,11111222,99999999' 
TABS,ioos:station:wmo:42046:1,2011-11-03T22:30:00Z,27.8903,-94.0367,2.0,209.5767219,16.08613378,-99999.0,'11111222,11111222,99999999' 
TABS,ioos:station:wmo:42046:1,2011-11-03T23:00:00Z,27.8903,-94.0367,2.0,199.6007947,7.303211622,-99999.0,'11133222,11111222,99999999' 
TABS,ioos:station:wmo:42046:1,2011-11-03T23:30:00Z,27.8903,-94.0367,2.0,207.1121726,11.23451824,-99999.0,'11111222,11111222,99999999' 
TABS,ioos:station:wmo:42046:1,2011-11-04T00:00:00Z,27.8903,-94.0367,2.0,205.7117364,9.312019115,-99999.0,'11133222,11111222,99999999' 
TABS,ioos:station:wmo:42046:1,2011-11-04T00:30:00Z,27.8903,-94.0367,2.0,218.6293121,5.926795087,-99999.0,'11133222,11111222,99999999' 
TABS,ioos:station:wmo:42046:1,2011-11-04T01:00:00Z,27.8903,-94.0367,2.0,233.6602677,1.080046295,-99999.0,'11133222,11111222,99999999' 
TABS,ioos:station:wmo:42046:1,2011-11-04T01:30:00Z,27.8903,-94.0367,2.0,219.9275633,7.198249787,-99999.0,'11133222,11111222,99999999' 
TABS,ioos:station:wmo:42046:1,2011-11-04T02:00:00Z,27.8903,-94.0367,2.0,154.7670172,1.923538406,-99999.0,'11133222,11111222,99999999' 
TABS,ioos:station:wmo:42046:1,2011-11-04T02:30:00Z,27.8903,-94.0367,2.0,217.0562311,2.456013029,-99999.0,'11133222,11111222,99999999' 
TABS,ioos:station:wmo:42046:1,2011-11-04T03:00:00Z,27.8903,-94.0367,2.0,149.8985554,3.190235101,-99999.0,'11133222,11111222,99999999' 
TABS,ioos:station:wmo:42046:1,2011-11-04T03:30:00Z,27.8903,-94.0367,2.0,200.1075065,3.141480543,-99999.0,'11133222,11111222,99999999' 
TABS,ioos:station:wmo:42046:1,2011-11-04T04:00:00Z,27.8903,-94.0367,2.0,114.9589898,2.393532954,-99999.0,'11133222,11111222,99999999' 
TABS,ioos:station:wmo:42046:1,2011-11-04T04:30:00Z,27.8903,-94.0367,2.0,121.0360575,4.073094647,-99999.0,'11133222,11111222,99999999' 
TABS,ioos:station:wmo:42046:1,2011-11-04T05:00:00Z,27.8903,-94.0367,2.0,115.8954544,2.678992348,-99999.0,'11133222,11111222,99999999' 
TABS,ioos:station:wmo:42046:1,2011-11-04T05:30:00Z,27.8903,-94.0367,2.0,143.7265979,6.338343632,-99999.0,'11133222,11111222,99999999' 
TABS,ioos:station:wmo:42046:1,2011-11-04T06:00:00Z,27.8903,-94.0367,2.0,140.3109848,8.173891362,-99999.0,'11133222,11111222,99999999' 
TABS,ioos:station:wmo:42046:1,2011-11-04T06:30:00Z,27.8903,-94.0367,2.0,121.8827868,10.90528312,-99999.0,'11111222,11111222,99999999' 
TABS,ioos:station:wmo:42046:1,2011-11-04T07:00:00Z,27.8903,-94.0367,2.0,142.2609884,7.384849355,-99999.0,'11133222,11111222,99999999' 
TABS,ioos:station:wmo:42046:1,2011-11-04T07:30:00Z,27.8903,-94.0367,2.0,139.9544346,10.39796615,-99999.0,'11111222,11111222,99999999' 
TABS,ioos:station:wmo:42046:1,2011-11-04T08:00:00Z,27.8903,-94.0367,2.0,130.7062582,11.23918591,-99999.0,'11111222,11111222,99999999' 
TABS,ioos:station:wmo:42046:1,2011-11-04T08:30:00Z,27.8903,-94.0367,2.0,142.0210297,10.64399361,-99999.0,'11111222,11111222,99999999' 
TABS,ioos:station:wmo:42046:1,2011-11-04T09:00:00Z,27.8903,-94.0367,2.0,141.7694985,11.87734819,-99999.0,'11111222,11111222,99999999' 
TABS,ioos:station:wmo:42046:1,2011-11-04T09:30:00Z,27.8903,-94.0367,2.0,139.5960468,9.441954247,-99999.0,'11133222,11111222,99999999' 
TABS,ioos:station:wmo:42046:1,2011-11-04T10:00:00Z,27.8903,-94.0367,2.0,135.3761272,15.0758416,-99999.0,'11111222,11111222,99999999' 
TABS,ioos:station:wmo:42046:1,2011-11-04T10:30:00Z,27.8903,-94.0367,2.0,134.6580707,15.40813097,-99999.0,'11111222,11111222,99999999' 
TABS,ioos:station:wmo:42046:1,2011-11-04T11:00:00Z,27.8903,-94.0367,2.0,127.3053339,14.73442568,-99999.0,'11111222,11111222,99999999' 
TABS,ioos:station:wmo:42046:1,2011-11-04T11:30:00Z,27.8903,-94.0367,2.0,130.6932901,16.1960489,-99999.0,'11111222,11111222,99999999' 
TABS,ioos:station:wmo:42046:1,2011-11-04T12:00:00Z,27.8903,-94.0367,2.0,132.5307703,13.78724048,-99999.0,'11111222,11111222,99999999' 
TABS,ioos:station:wmo:42046:1,2011-11-04T12:30:00Z,27.8903,-94.0367,2.0,132.1262458,14.38650062,-99999.0,'11111222,11111222,99999999' 
TABS,ioos:station:wmo:42046:1,2011-11-04T13:00:00Z,27.8903,-94.0367,2.0,132.0663735,14.50762903,-99999.0,'11111222,11111222,99999999' 
TABS,ioos:station:wmo:42046:1,2011-11-04T13:30:00Z,27.8903,-94.0367,2.0,126.564147,16.87024007,-99999.0,'11111222,11111222,99999999' 
TABS,ioos:station:wmo:42046:1,2011-11-04T14:00:00Z,27.8903,-94.0367,2.0,124.3281221,17.18290429,-99999.0,'11111222,11111222,99999999' 
TABS,ioos:station:wmo:42046:1,2011-11-04T14:30:00Z,27.8903,-94.0367,2.0,122.3665624,16.81190055,-99999.0,'11111222,11111222,99999999' 
TABS,ioos:station:wmo:42046:1,2011-11-04T15:00:00Z,27.8903,-94.0367,2.0,125.1380394,17.67007074,-99999.0,'11111222,11111222,99999999' 
TABS,ioos:station:wmo:42046:1,2011-11-04T15:30:00Z,27.8903,-94.0367,2.0,132.2987728,15.30465289,-99999.0,'11111222,11111222,99999999' 
TABS,ioos:station:wmo:42046:1,2011-11-04T16:00:00Z,27.8903,-94.0367,2.0,129.5530759,17.7294388,-99999.0,'11111222,11111222,99999999' 